Theta_e
309 308 308 308 309 308 311 312 312 311 310 312 314 316 317 318 319 318 315 314 315 317 319 319 319 321 321 320 320 319 311 312 317 318 318 318 318 319 319 319 319 320 318 321 326
309 309 308 308 308 311 313 313 312 311 312 313 315 316 318 317 320 318 313 314 316 317 318 318 319 319 320 319 319 314 310 313 314 317 316 317 318 319 318 318 318 318 319 322 321
309 309 308 309 311 313 314 314 313 312 313 315 316 317 316 318 317 316 316 316 317 318 318 318 319 319 319 320 318 312 312 315 318 318 318 317 318 318 317 317 318 319 319 322 322
310 310 309 311 313 314 315 314 314 313 313 315 316 316 316 319 312 315 318 318 317 317 317 318 319 319 316 316 318 318 316 318 318 318 319 317 318 317 318 318 319 319 319 321 322
310 311 310 311 314 314 314 314 314 313 313 313 313 315 320 319 316 315 317 317 317 317 317 318 318 318 316 314 317 317 317 318 318 318 318 318 317 317 318 319 319 319 320 321 322
310 310 312 311 313 314 314 314 314 313 312 313 315 318 319 319 317 316 317 318 317 317 317 318 317 318 317 317 316 318 318 317 317 317 318 318 317 318 318 319 319 318 321 323 322
310 310 312 313 313 314 314 314 314 313 313 314 317 319 318 317 317 317 318 318 318 317 318 318 316 318 318 318 318 317 317 313 315 317 317 318 317 317 319 318 319 317 323 325 325
311 310 310 311 313 313 313 313 313 313 313 314 316 319 322 320 317 318 318 318 318 318 318 318 319 319 319 318 316 315 312 314 313 314 316 316 315 316 320 319 318 317 323 325 325
311 311 311 312 311 311 312 313 313 312 312 313 315 319 320 318 318 318 317 318 318 318 319 319 319 318 317 313 312 311 316 316 317 315 316 315 316 317 318 318 319 317 324 325 325
311 313 313 313 313 317 320 321 321 319 314 315 316 316 319 320 318 318 318 318 318 319 319 319 319 313 310 311 314 317 317 317 317 317 315 315 315 316 318 317 317 317 324 325 325
312 312 313 313 315 319 317 318 318 321 318 318 319 319 320 319 318 318 318 318 318 319 317 317 315 315 316 314 315 316 316 318 317 318 317 315 315 318 318 317 318 323 323 322 323
313 314 315 319 320 321 320 319 320 320 319 319 319 319 321 320 319 320 319 319 318 316 316 314 316 316 316 315 316 316 317 317 316 317 316 315 315 318 318 317 317 318 318 321 323
313 318 319 320 321 320 321 319 322 321 319 320 319 321 320 320 319 320 319 318 317 317 316 316 318 317 317 317 317 317 316 318 318 317 317 315 315 316 317 318 317 318 319 319 319
314 314 316 319 322 322 322 321 321 322 319 324 323 321 320 319 318 319 319 318 317 318 317 317 316 317 317 318 316 317 317 317 318 316 316 314 314 317 317 317 317 317 317 317 317
315 314 317 321 322 321 321 321 321 322 325 324 321 319 318 318 319 319 319 319 318 319 317 318 318 318 318 318 317 318 317 316 317 315 314 315 313 315 316 318 318 318 317 317 317
315 315 315 322 321 321 319 320 320 325 331 319 319 318 317 317 318 319 320 319 320 319 319 320 320 317 318 318 318 316 316 312 311 311 315 316 313 312 316 316 317 318 317 317 316
315 316 314 315 319 319 320 322 321 327 325 321 319 318 317 317 317 318 319 319 319 319 320 320 320 319 319 318 316 313 312 313 315 314 314 314 313 311 315 315 316 317 317 316 315
317 323 315 320 321 318 321 319 325 325 322 322 321 319 318 318 318 319 319 320 320 319 318 320 322 319 319 318 318 315 312 312 318 316 315 313 315 315 314 316 318 317 317 316 314
323 324 323 322 321 320 322 319 322 323 321 322 320 320 321 322 320 320 320 321 320 318 319 318 319 319 320 318 317 317 315 313 314 312 313 312 315 313 316 316 317 317 316 315 314
320 326 325 322 320 320 316 320 322 320 321 320 321 322 322 321 321 319 321 322 321 318 317 318 318 317 321 319 316 315 314 314 311 318 317 313 314 313 315 315 314 315 315 315 315
318 325 319 318 318 321 320 322 322 321 321 320 320 320 320 323 322 322 323 321 320 319 317 317 315 317 315 315 316 312 312 310 310 311 312 314 313 311 312 312 313 315 317 316 315
319 318 320 319 318 315 316 317 320 320 320 320 319 321 321 321 321 322 324 322 320 318 318 315 314 315 314 313 312 313 313 310 311 313 310 309 311 310 312 313 316 316 315 314 313
320 321 319 320 315 314 316 318 319 319 319 319 319 318 318 319 319 321 322 319 319 319 318 312 309 310 312 309 312 316 314 313 309 307 311 311 311 313 313 312 313 313 313 313 313
318 314 319 318 317 316 317 318 319 319 319 318 318 318 318 318 315 319 322 318 317 317 314 312 307 311 312 310 314 317 316 315 312 306 312 312 313 315 313 313 313 313 313 312 312
316 315 315 313 313 316 316 317 318 319 318 317 317 317 317 318 317 317 317 318 315 317 315 310 313 312 312 313 317 317 315 314 313 312 311 312 314 314 313 313 313 313 312 312 312
316 315 315 315 315 316 314 317 318 319 316 316 316 318 317 317 317 317 315 315 316 314 315 311 311 316 317 316 316 315 314 313 313 314 315 316 316 313 313 313 312 312 312 312 311
313 313 314 313 315 315 316 317 317 315 316 316 316 315 316 316 317 316 316 316 314 312 311 312 310 310 314 314 313 311 313 313 316 316 314 315 314 313 312 312 312 312 312 312 312
Wind_Speed
5 5 5 4 5 6 8 7 4 4 4 5 6 5 5 4 5 5 6 3 2 4 6 4 3 5 7 3 1 1 4 1 2 2 3 9 5 11 18 21 19 21 17 25 22
6 6 6 6 8 10 8 7 6 5 5 6 5 4 5 10 5 5 5 1 2 5 6 8 7 8 2 1 1 4 4 7 4 3 2 1 4 10 8 17 18 20 21 29 23
6 7 7 9 11 10 9 8 7 7 6 5 3 3 8 10 4 9 11 9 8 10 13 13 9 8 2 2 3 3 5 5 2 4 7 4 3 4 13 2 12 21 23 23 20
6 7 8 10 10 9 8 7 7 7 5 3 2 5 10 6 2 3 9 10 13 14 17 8 8 4 2 2 3 2 2 8 6 5 4 3 2 3 3 7 13 15 21 22 22
6 7 7 8 8 6 6 5 5 5 5 3 3 7 9 3 4 2 4 10 10 12 16 12 11 7 0 4 2 3 2 4 5 7 2 1 2 2 4 10 14 16 22 24 22
6 6 6 6 5 4 4 3 3 3 3 2 3 8 7 2 6 6 6 8 9 9 12 11 8 10 3 3 2 2 3 1 2 1 3 1 2 3 3 14 17 15 22 25 24
6 5 5 5 3 2 1 1 1 2 2 2 4 9 3 4 4 1 7 11 8 7 9 11 9 6 3 1 6 1 2 5 4 2 1 3 4 3 19 4 19 11 23 24 23
6 5 5 3 2 1 1 2 2 2 2 2 5 8 4 3 3 1 4 7 4 6 10 10 11 3 2 3 7 5 6 5 8 7 5 3 8 4 15 14 12 8 26 24 21
6 6 5 4 4 3 4 3 3 3 4 5 5 5 4 1 3 2 3 6 6 6 9 10 8 2 2 4 5 7 1 2 5 7 1 6 4 9 25 15 12 10 27 25 24
6 5 5 5 5 7 9 5 3 1 2 5 6 6 1 12 5 4 0 1 5 11 9 2 2 3 4 4 3 1 4 3 4 7 6 6 8 17 26 14 10 9 24 24 19
7 5 5 6 7 9 13 6 5 1 14 7 11 11 15 8 7 2 4 6 5 3 1 4 5 1 5 5 4 6 5 2 2 3 2 6 6 13 21 28 22 31 27 22 17
7 6 6 7 7 7 9 12 10 7 8 13 14 14 9 8 6 7 4 4 4 4 3 5 1 5 2 7 9 5 3 3 4 4 4 8 10 6 21 21 22 28 33 32 30
4 2 3 3 4 9 12 11 5 8 2 10 5 7 8 5 5 3 3 3 3 6 4 2 4 3 6 4 6 3 5 2 3 3 1 4 6 7 9 23 28 28 28 26 21
5 2 3 2 3 8 8 10 9 4 4 5 2 2 7 3 2 6 3 1 5 3 3 2 6 6 4 3 4 3 2 1 2 4 1 4 3 3 3 8 12 17 19 17 15
7 3 3 2 2 6 10 10 5 3 3 2 3 2 4 5 3 4 2 1 2 2 6 5 3 2 4 1 3 3 1 3 2 3 3 3 4 4 3 3 2 3 8 9 7
9 4 5 4 4 10 13 2 1 5 1 2 4 3 4 4 4 2 0 1 1 4 4 2 5 3 3 3 4 3 3 7 5 3 2 3 4 4 4 6 3 3 6 6 5
9 4 3 3 4 9 8 1 5 3 4 4 2 2 1 3 2 5 3 4 1 3 4 5 5 5 5 3 4 7 7 4 5 5 5 1 1 6 4 5 8 12 10 5 3
8 4 3 5 7 13 8 5 2 2 3 3 3 0 3 2 5 7 6 2 4 4 3 3 4 5 6 2 1 3 5 5 4 3 5 7 5 4 6 5 10 10 7 3 4
8 2 3 5 7 11 5 4 3 2 3 6 3 6 6 5 2 4 4 2 3 3 5 3 3 3 6 4 2 2 1 2 4 3 2 3 3 4 4 3 8 10 4 1 5
6 2 4 5 8 9 4 3 2 2 3 4 3 3 5 6 7 5 3 2 2 6 1 2 2 3 4 3 6 5 3 2 3 2 4 4 3 5 5 8 7 5 4 2 4
4 3 5 5 6 4 3 3 4 5 3 4 0 2 2 2 3 2 2 3 1 3 10 3 3 5 2 5 2 5 4 5 4 4 3 2 5 2 5 5 7 7 5 3 6
5 3 12 4 4 3 1 4 8 4 7 5 4 4 3 4 3 2 3 1 3 2 3 2 4 1 5 5 4 3 4 5 4 5 2 4 6 7 3 12 13 7 1 2 4
9 5 10 4 3 3 6 4 3 7 4 3 2 2 0 1 2 3 3 8 8 5 3 3 2 3 8 6 5 5 3 3 3 3 4 3 5 6 9 9 7 4 3 2 5
7 4 5 9 7 2 4 3 5 8 2 2 5 4 4 4 6 2 2 7 4 6 8 4 3 6 5 5 3 5 5 1 4 3 3 6 4 2 2 1 3 5 5 5 6
8 3 3 3 4 5 3 4 4 5 4 6 4 3 1 2 2 3 4 1 6 4 3 4 2 2 4 6 4 3 6 7 4 7 5 6 7 4 3 4 7 9 9 10 13
6 5 5 5 6 3 4 3 3 5 1 1 6 0 4 4 2 4 1 0 2 0 2 3 1 1 3 6 4 5 7 8 6 2 1 3 1 1 5 8 12 15 13 13 17
6 4 4 3 4 2 0 4 7 10 5 2 8 4 1 5 8 7 10 8 4 7 3 3 5 3 3 4 4 3 4 4 1 1 2 5 4 2 5 11 16 17 14 16 21
Wind_Direction
47 43 45 62 91 102 104 93 71 50 57 71 84 84 71 36 329 333 338 323 23 33 28 34 2 328 319 319 104 141 65 153 288 109 332 9 79 68 112 105 98 105 90 122 109
50 51 57 82 102 107 97 80 64 65 75 88 89 67 33 349 329 10 357 86 56 15 11 0 348 331 276 40 164 105 110 215 210 153 151 143 103 147 111 103 105 109 110 128 133
58 60 71 98 110 105 92 75 65 67 78 85 70 31 358 358 24 18 67 64 41 10 347 340 355 4 22 243 212 139 180 194 186 147 151 128 79 98 133 129 164 145 138 134 126
64 69 82 112 114 103 86 72 61 62 73 72 35 350 349 9 97 20 67 34 17 11 6 4 350 23 328 265 262 184 236 159 172 166 118 127 86 84 163 196 174 167 155 153 142
66 77 88 116 116 100 84 70 57 53 56 49 4 354 5 3 20 103 27 1 21 23 22 36 33 8 311 291 74 106 251 188 147 141 132 58 120 208 235 195 179 166 164 160 155
70 83 97 116 120 99 83 68 54 54 58 38 20 356 357 13 52 72 354 3 10 17 13 9 4 348 290 337 114 132 128 288 276 216 179 145 300 338 38 203 196 189 168 164 165
63 74 89 105 118 106 75 46 35 63 65 32 5 352 351 32 337 55 346 342 340 355 9 15 345 342 333 315 12 94 55 359 313 253 352 154 2 26 360 228 215 165 166 159 153
61 66 66 70 73 15 341 338 329 338 325 331 327 340 297 293 254 276 325 338 354 354 337 338 347 322 351 343 15 42 49 40 304 348 22 88 270 281 351 348 254 130 164 156 147
59 62 56 43 35 30 23 7 336 310 289 293 306 328 304 233 192 221 286 291 318 311 323 302 324 50 70 70 16 7 85 22 335 20 99 56 292 302 349 344 288 162 165 151 138
53 54 50 45 57 56 29 21 5 305 357 303 291 314 337 331 254 322 36 29 320 316 328 15 46 57 39 75 190 236 36 41 59 326 51 16 347 351 353 337 305 203 147 134 124
37 42 50 69 75 55 51 49 18 40 323 269 279 288 298 333 282 320 317 312 331 328 18 3 61 225 222 183 126 103 97 115 223 337 68 43 27 7 1 37 80 108 113 97 95
30 53 76 70 55 37 39 31 14 330 306 297 280 270 275 293 289 316 295 341 22 343 8 28 201 220 152 90 91 80 94 348 290 322 115 88 38 17 30 44 63 90 100 101 101
26 74 79 51 43 56 46 25 29 342 324 296 265 248 243 241 243 285 253 325 59 21 354 141 314 91 112 115 94 62 123 197 220 326 23 105 39 8 24 50 66 79 100 100 97
356 258 269 295 70 23 27 3 353 325 56 283 270 272 210 213 287 198 239 32 30 19 29 38 332 109 82 80 121 107 261 163 342 48 251 43 253 9 26 39 44 80 90 97 96
350 267 236 185 16 2 334 321 321 317 48 234 229 292 187 169 171 226 229 98 139 349 74 273 317 104 67 288 121 159 213 11 330 123 89 351 80 244 144 58 344 60 99 102 93
350 304 232 233 301 323 325 5 356 45 329 332 188 190 120 219 207 213 132 36 48 87 23 316 306 23 126 50 47 107 37 39 52 70 49 214 127 262 190 178 201 215 158 131 94
351 324 259 264 329 333 345 355 40 115 336 333 306 211 164 256 255 157 161 17 142 74 7 346 355 331 70 87 25 65 49 353 357 5 229 13 19 236 223 190 177 186 174 156 114
1 9 116 99 4 360 359 51 106 290 317 347 319 299 182 339 251 190 124 100 19 75 99 120 323 11 332 95 159 61 136 149 250 230 254 347 263 249 218 166 176 183 180 159 36
14 78 98 14 341 353 343 64 203 312 311 345 20 57 354 337 302 49 67 68 21 5 142 142 277 328 40 6 82 154 33 187 132 28 40 251 314 358 67 121 191 201 199 100 32
24 93 53 329 327 325 65 222 237 302 5 42 72 44 23 336 18 31 47 331 102 24 98 152 359 14 314 47 37 102 163 13 12 255 273 294 284 238 223 222 218 204 205 221 352
13 103 11 327 332 349 101 263 314 14 28 50 59 360 42 346 349 36 20 356 42 45 72 86 87 285 355 33 261 3 13 45 113 127 204 307 273 301 272 223 163 176 204 264 329
14 55 4 334 46 30 52 306 336 323 16 19 96 70 58 12 7 35 158 10 20 73 64 20 125 277 257 298 274 104 107 96 98 290 238 162 264 343 72 118 143 165 203 299 338
358 343 20 25 81 340 322 310 324 7 354 8 74 37 138 31 349 29 53 30 42 62 109 181 24 16 349 357 14 59 73 123 111 74 225 154 271 6 59 67 82 77 1 315 300
359 9 8 55 60 70 345 302 328 331 280 81 35 53 35 40 11 72 85 12 44 87 71 99 118 148 191 221 202 295 315 294 139 128 223 229 262 317 17 58 341 334 308 284 310
15 42 20 318 339 349 316 310 319 343 18 40 56 57 324 69 44 33 12 90 35 24 48 94 152 162 236 239 231 270 296 309 275 230 187 271 203 216 248 274 310 309 297 304 318
11 11 350 300 307 11 354 329 294 266 228 292 119 87 87 142 157 201 329 172 201 268 80 14 209 103 284 280 315 279 273 271 274 317 56 90 299 242 292 313 317 307 284 299 308
5 347 307 322 343 36 192 299 307 308 24 193 156 117 109 192 195 218 220 237 213 167 140 115 127 109 262 337 304 340 234 243 190 300 160 200 232 295 283 278 289 296 261 288 310